Location: Alphaba - Cockrum - Ingrams Mill Volunteer Fire Department Station 2
(34.7915°N, 89.7598°W)
Time: 08:47:25
(UTC+00:00)

Cosmos 2221 - Pass Details

Date: 11 December 2025
Orbit: 569 x 589 km, 82.5° (Epoch: 24 January)

Event Time Altitude Azimuth Distance (km) Brightness Sun altitude
Rises 12:01:22 0° 0° (N) 2,778 5.7 -11.2°
Reaches altitude 10° 12:03:38 10° 7° (N) 1,875 4.9 -10.7°
Maximum altitude 12:07:36 45° 80° (E) 783 3.6 -10.0°
Drops below altitude 10° 12:11:32 10° 154° (SSE) 1,864 5.8 -9.2°
Sets 12:13:47 0° 161° (SSE) 2,759 6.6 -8.8°
